Location: Cisewo
(53.3833°N, 14.9000°E)
Time: 05:34:30
(UTC+00:00)

NOAA 18 - Pass Details

Date: 21 September 2021
Orbit: 841 x 860 km, 99.0° (Epoch: 17 October)

Event Time Altitude Azimuth Distance (km) Brightness Sun altitude
Exits shadow 22:13:21 12° 277° (W) 2,351 7.7 -35.6°
Maximum altitude 22:13:25 12° 278° (W) 2,351 7.7 -35.6°
Drops below altitude 10° 22:15:17 10° 298° (WNW) 2,474 8.0 -35.7°
Sets 22:19:34 0° 330° (NNW) 3,421 9.2 -35.8°
